Regional Weather Roundup
Issued by NWS

Home | Current Version | Previous Version | Graphics & Text | Print | Product List | Glossary On
Versions: 1 2 3 4 5 6 7 8 9 10 11 12 13 14 15 16 17 18 19 20 21 22 23 24 25 26 27 28 29 30 31 32 33 34 35 36 37 38 39 40 41 42 43 44 45 46 47 48 49 50
000
ASUS43 KDMX 211606
RWRIA

WEATHER ROUNDUP FOR IOWA
NATIONAL WEATHER SERVICE DES MOINES IA
1000 AM CST SAT JAN 21 2017

NOTE: "FAIR" INDICATES FEW OR NO CLOUDS BELOW 12,000 FEET WITH NO
SIGNIFICANT WEATHER AND/OR OBSTRUCTIONS TO VISIBILITY.

* - THESE STATIONS ARE NOT NWS STATIONS...THUS NOT UNDER NWS
QUALITY CONTROL.  THEY ALSO DO NOT REPORT WEATHER SUCH
AS PRECIPITATION OR FOG.

IAZ001>003-012>014-020>022-031>034-043>046-211700-
   NORTHWEST IOWA

CITY           SKY/WX    TMP DP  RH WIND       PRES   REMARKS
CARROLL *      CLOUDY    41  41 100 SW7       29.40R FOG
CHEROKEE *     CLOUDY    38  38 100 SW6       29.38S FOG     WCI  34
DENISON *      FOG       39  39 100 SW13      29.39R VSB 1/4 WCI  32
LE MARS *      FOG       39  39 100 SW6       29.39R VSB 1/4 WCI  35
ORANGE CITY *  FOG       37  37 100 SW3       29.37R VSB<1/4
SHELDON *      FOG       36  36 100 S3        29.36R VSB 1/4
SIOUX CITY     MOSUNNY   40  39  97 S6        29.40R
SPENCER        FOG       36  35  96 SE3       29.37S VSB 1
STORM LAKE *   PTSUNNY   39  37  93 SW6       29.37F FOG     WCI  35
$$

IAZ055>058-069>071-079>083-090>094-211700-
   SOUTHWEST IOWA

CITY           SKY/WX    TMP DP  RH WIND       PRES   REMARKS
ATLANTIC *     FOG       39  39 100 SW13      29.44R VSB 1/4 WCI  32
AUDUBON *      FOG       39  37  93 SW10      29.44R VSB 1/4 WCI  32
CLARINDA *     FOG       39  39 100 SW6       29.47S VSB 1   WCI  35
COUNCIL BLFS * FOG       37  37 100 SW8       29.44R VSB 1/2 WCI  31
CRESTON *      FOG       41  41 100 SW9G16    29.46R VSB 1/4
HARLAN  *      FOG       39  39 100 SW10      29.47R VSB 1/4 WCI  32
LAMONI         FOG       42  42 100 SW6       29.45S VSB 1/4
RED OAK *      FOG       39  39 100 SW7       29.45S VSB 1/4 WCI  34
SHENANDOAH *   CLOUDY    39  39 100 W8        29.46S FOG     WCI  34
$$

IAZ047>049-059>061-072>074-084-211700-
   CENTRAL IOWA

CITY           SKY/WX    TMP DP  RH WIND       PRES   REMARKS
AMES           FOG       42  42 100 SW9       29.42R VSB 3/4
ANKENY *       CLOUDY    43  43 100 SW8       29.45R FOG
BOONE *        FOG       41  41 100 SW8       29.41R VSB<1/4
CHARITON *     CLOUDY    43  43 100 SW8       29.45F FOG
DES MOINES     CLOUDY    44  44 100 SW7       29.44R FOG
GRINNELL*      FOG       42  41  98 SW10      29.44R VSB<1/4
KNOXVILLE *    CLOUDY    45  45 100 SW9       29.44R FOG
MARSHALLTOWN   FOG       43  43 100 SW9       29.41R VSB 3/4
NEWTON *       FOG       43  43 100 SW9       29.43R VSB<1/4
PELLA *        CLOUDY    44  44  99 SW8       29.46R FOG
PERRY *        FOG       41  41  97 SW8       29.43R VSB 1/4
$$

IAZ004>006-015-016-023>025-035-036-211700-
   NORTH CENTRAL IOWA

CITY           SKY/WX    TMP DP  RH WIND       PRES   REMARKS
ALGONA *       PTSUNNY   37  37 100 CALM      29.38S
CLARION *      FOG       37  37 100 S5        29.40R VSB<1/4 WCI  34
ESTHERVILLE    FOG       34  34 100 CALM      29.37R VSB 1/4
FORT DODGE *   CLOUDY    37  36  93 SW5       29.40R WCI  34
MASON CITY     FOG       34  34 100 S5        29.40R VSB 1/4 WCI  30
FOREST CITY *  FOG       34  34 100 CALM      29.38S VSB 1/4
WEBSTER CITY * FOG       39 N/A N/A S6        29.39R VSB<1/4 WCI  35
IOWA FALLS *   FOG       40  39  98 S5        29.42R VSB<1/4
$$

IAZ007>011-017>019-026>030-037>042-050>054-066-211700-
   NORTHEAST IOWA

CITY           SKY/WX    TMP DP  RH WIND       PRES   REMARKS
CEDAR RAPIDS   FOG       43  43 100 S5        29.43R VSB 1/8
CHARLES CITY * FOG       37  37 100 SW6       29.41R VSB<1/4 WCI  33
CLINTON *      CLOUDY    44  44 100 SE8       29.45S FOG
DECORAH *      FOG       37  37 100 SE7       29.40S VSB<1/4 WCI  32
DUBUQUE        FOG       42  42 100 S7        29.44R VSB<1/4
MONTICELLO *   FOG       43  43 100 CALM      29.44R VSB<1/4
OELWEIN *      FOG       39  37  93 S7        29.42R VSB<1/4 WCI  34
WATERLOO       FOG       42  41  96 SE3       29.41R VSB 1/4
$$

IAZ064-065-067-068-078-211700-
   EAST CENTRAL IOWA

CITY           SKY/WX    TMP DP  RH WIND       PRES   REMARKS
DAVENPORT      SUNNY     49  43  80 S10       29.45R
IOWA CITY      FOG       44  44 100 S5        29.46R VSB 1/2
MUSCATINE *    FOG       43  41  93 SW5       29.48R VSB 1/4
QUAD CITIES    SUNNY     51  43  74 S12       29.44R
$$

IAZ062-063-075>077-085>089-095>099-211700-
   SOUTHEAST IOWA

CITY           SKY/WX    TMP DP  RH WIND       PRES   REMARKS
BURLINGTON     SUNNY     48  43  82 SW14      29.47R
FAIRFIELD *    FOG       45  45 100 SW9       29.46R VSB 1/2
FORT MADISON * SUNNY     48  48 100 SW10G18   29.49R
KEOKUK *       SUNNY     48 N/A N/A SW14G21   29.48R
OSKALOOSA *    CLOUDY    43  43  99 SW10      29.46R FOG
OTTUMWA        CLOUDY    44  42  93 SW9       29.46R FOG
WASHINGTON *   FOG       45  45 100 SW7       29.47R VSB 1/2
$$

ABBREVIATIONS USED IN REMARKS
   TC - TEMPERATURES IN CELSIUS
  WCI - WIND CHILL INDEX
   HX - HEAT INDEX
  VSB - VISIBILITY
$$




USA.gov is the U.S. government's official web portal to all federal, state and local government web resources and services.